This is the latest recevied weather packets stored in our database for station/object IT9FBN-3. If no packets are shown the sender has not sent any weather packets the latest 1 day(s).
| Time | Temp. | Humidity | Pressure | Rain* | Wind** | Luminosity | Snow |
|---|---|---|---|---|---|---|---|
| 1777986003 | 20.56° C | 60% | 1017.4 hPa | 0 mm | 4.47 m/s, 12° | - | - |
| 1777985703 | 20.56° C | 60% | 1017.6 hPa | 0 mm | 4.02 m/s, 12° | - | - |
| 1777985403 | 20.56° C | 60% | 1017.6 hPa | 0 mm | 3.58 m/s, 4° | - | - |
| 1777985103 | 20.56° C | 62% | 1017.7 hPa | 0 mm | 3.58 m/s, 6° | - | - |
| 1777984803 | 20.56° C | 63% | 1017.8 hPa | 0 mm | 3.58 m/s, 12° | - | - |
| 1777984503 | 20° C | 65% | 1017.8 hPa | 0 mm | 4.02 m/s, 8° | - | - |
| 1777984203 | 20° C | 64% | 1018 hPa | 0 mm | 4.02 m/s, 359° | - | - |
| 1777983903 | 20° C | 65% | 1017.8 hPa | 0 mm | 4.02 m/s, 3° | - | - |
| 1777983603 | 20° C | 68% | 1017.9 hPa | 0 mm | 4.47 m/s, 9° | - | - |
| 1777983303 | 20° C | 69% | 1017.9 hPa | 0 mm | 4.92 m/s, 16° | - | - |
| 1777983003 | 20° C | 70% | 1018 hPa | 0 mm | 4.92 m/s, 12° | - | - |
| 1777982703 | 20° C | 71% | 1018.2 hPa | 0 mm | 4.47 m/s, 1° | - | - |
| 1777982403 | 19.44° C | 73% | 1018.3 hPa | 0 mm | 4.47 m/s, 5° | - | - |
| 1777982103 | 19.44° C | 73% | 1018.3 hPa | 0 mm | 4.47 m/s, 10° | - | - |
| 1777981803 | 19.44° C | 73% | 1018.2 hPa | 0 mm | 4.47 m/s, 11° | - | - |
| 1777981503 | 19.44° C | 74% | 1018.4 hPa | 0 mm | 4.02 m/s, 13° | - | - |
| 1777981203 | 19.44° C | 73% | 1018.2 hPa | 0 mm | 4.02 m/s, 14° | - | - |
| 1777980903 | 19.44° C | 74% | 1018.2 hPa | 0 mm | 4.02 m/s, 10° | - | - |
| 1777980603 | 19.44° C | 74% | 1018.4 hPa | 0 mm | 4.47 m/s, 6° | - | - |
| 1777980303 | 19.44° C | 74% | 1018.3 hPa | 0 mm | 4.47 m/s, 8° | - | - |
| 1777980003 | 19.44° C | 74% | 1018.5 hPa | 0 mm | 4.47 m/s, 12° | - | - |
| 1777979703 | 19.44° C | 74% | 1018.4 hPa | 0 mm | 4.47 m/s, 13° | - | - |
| 1777979403 | 19.44° C | 74% | 1018.4 hPa | 0 mm | 4.47 m/s, 13° | - | - |
| 1777979103 | 19.44° C | 74% | 1018.4 hPa | 0 mm | 4.02 m/s, 21° | - | - |
| 1777978803 | 20° C | 74% | 1018.6 hPa | 0 mm | 3.58 m/s, 18° | - | - |
* Rain latest hour (hover to see other rain measurements)
** Current wind speed in m/s (hover to see current wind gust speed)